Date String (YYYY-MM-DD hh:mm:ss) UTC,Instrument flags,absolute air pressure of the measurement (hPa),sample flow rate (lpm),inlet stack bypass flow (lpm),air temperature of the measurement (°C),ambient temperature measured by the external sensor (°C),aerosol sample conditioner tube jacket temperature (°C),OPC LED temperature (°C),internal box temperature (°C),relative humidity of the measurement (%),span deviation,mass concentration of particles derived from Lorenz-Mie calculation of OPC scattering (μg/m³),mass concentration of particles derived from Lorenz-Mie calculation of OPC scattering (μg/m³),mass concentration of particles derived from Lorenz-Mie calculation of OPC scattering (μg/m³)
DateTimeUTC,F1_M11,P_M11,Q1_M11,Q2_M11,T1_M11,T2_M11,T3_M11,T4_M11,T5_M11,U1_M11,ZSPAN_M11,X2_M11,X0_M11,X1_M11
2023-11-19 02:00:00,SystemResetWarning,0825.6,5.00,000.00,026.1,025.1,000.0,034.3,027.5,14.0,0004.3,0005.31,0011.52,0004.66
2023-11-19 02:01:00,SystemResetWarning,0825.6,4.99,000.00,026.1,025.1,000.0,034.3,027.6,14.0,0003.9,0005.39,0012.53,0004.73
2023-11-19 02:02:00,SystemResetWarning,0825.6,4.98,000.00,026.1,024.0,000.0,034.3,027.5,13.9,0003.8,0005.49,0014.21,0004.82
2023-11-19 02:03:00,SystemResetWarning,0825.6,5.02,000.00,026.0,022.2,000.0,034.3,027.1,14.1,0003.4,0005.64,0015.25,0004.91
2023-11-19 02:04:00,SystemResetWarning,0825.6,5.00,000.00,025.8,021.9,000.0,034.2,026.8,14.2,0003.6,0005.76,0016.00,0004.97
2023-11-19 02:05:00,SystemResetWarning,0825.6,5.00,000.00,025.7,022.2,000.0,034.2,026.5,14.4,0003.5,0005.82,0016.42,0005.01
2023-11-19 02:06:00,SystemResetWarning,0825.5,5.00,000.00,025.6,022.6,000.0,034.1,026.5,14.6,0003.1,0005.79,0016.46,0005.00
2023-11-19 02:07:00,SystemResetWarning,0825.5,5.00,000.00,025.5,023.0,000.0,034.1,026.6,14.5,0002.9,0005.80,0016.25,0005.01
2023-11-19 02:08:00,SystemResetWarning,0825.4,4.99,000.00,025.5,023.3,000.0,034.0,026.7,14.5,0002.7,0005.78,0014.94,0005.01
2023-11-19 02:09:00,SystemResetWarning,0825.4,5.00,000.00,025.5,023.5,000.0,034.0,026.7,14.6,0002.6,0005.74,0014.67,0004.97
2023-11-19 02:10:00,SystemResetWarning,0825.4,5.00,000.00,025.5,023.8,000.0,034.0,026.8,14.5,0002.7,0005.73,0015.20,0004.93
2023-11-19 02:11:00,SystemResetWarning,0825.4,5.01,000.00,025.5,024.0,000.0,033.9,026.8,14.6,0003.0,0005.70,0015.44,0004.88
2023-11-19 02:12:00,SystemResetWarning,0825.4,5.00,000.00,025.5,024.1,000.0,033.9,026.9,14.6,0003.2,0005.72,0015.65,0004.90
2023-11-19 02:13:00,SystemResetWarning,0825.4,5.00,000.00,025.6,024.3,000.0,033.9,026.9,14.6,0003.1,0005.68,0014.55,0004.85
2023-11-19 02:14:00,SystemResetWarning,0825.3,5.00,000.00,025.6,024.4,000.0,033.9,027.0,14.4,0003.1,0005.61,0013.88,0004.82
2023-11-19 02:15:00,SystemResetWarning,0825.3,5.00,000.00,025.6,024.5,000.0,033.9,027.0,14.2,0003.0,0005.65,0013.75,0004.88
2023-11-19 02:16:00,SystemResetWarning,0825.3,5.00,000.00,025.6,024.6,000.0,033.9,027.0,14.3,0002.3,0005.72,0014.55,0004.93
2023-11-19 02:17:00,SystemResetWarning,0825.3,5.00,000.00,025.6,024.6,000.0,033.9,027.1,14.1,0002.1,0005.83,0015.10,0005.02
2023-11-19 02:18:00,SystemResetWarning,0825.3,5.00,000.00,025.7,024.7,000.0,033.9,027.1,14.1,0002.6,0005.93,0015.38,0005.07
2023-11-19 02:19:00,SystemResetWarning,0825.4,5.00,000.00,025.7,024.7,000.0,033.9,027.1,14.2,0001.8,0005.98,0015.56,0005.13
2023-11-19 02:20:00,SystemResetWarning,0825.4,4.99,000.00,025.7,024.8,000.0,033.9,027.1,14.1,0002.2,0006.08,0016.43,0005.19
2023-11-19 02:21:00,SystemResetWarning,0825.4,5.00,000.00,025.7,024.8,000.0,033.9,027.2,13.8,0002.1,0006.10,0016.15,0005.20
2023-11-19 02:22:00,SystemResetWarning,0825.3,5.00,000.00,025.7,024.8,000.0,034.0,027.2,14.4,0001.9,0006.07,0015.46,0005.19
2023-11-19 02:23:00,SystemResetWarning,0825.4,5.00,000.00,025.7,024.8,000.0,034.0,027.2,14.1,0001.4,0005.94,0014.50,0005.06
2023-11-19 02:24:00,SystemResetWarning,0825.3,5.00,000.00,025.8,024.8,000.0,034.0,027.2,13.9,0001.8,0005.79,0013.56,0004.94
2023-11-19 02:25:00,SystemResetWarning,0825.3,5.00,000.00,025.8,024.8,000.0,034.0,027.2,13.7,0002.4,0005.58,0013.17,0004.75
2023-11-19 02:26:00,SystemResetWarning,0825.3,5.00,000.00,025.8,024.8,000.0,034.0,027.2,14.2,0002.6,0005.30,0012.86,0004.51
2023-11-19 02:27:00,SystemResetWarning,0825.3,5.00,000.00,025.8,024.8,000.0,034.0,027.2,14.1,0003.5,0005.05,0011.49,0004.28
2023-11-19 02:28:00,SystemResetWarning,0825.3,5.00,000.00,025.8,024.8,000.0,034.0,027.2,14.1,0004.1,0004.95,0011.68,0004.14
2023-11-19 02:29:00,SystemResetWarning,0825.3,5.00,000.00,025.8,024.9,000.0,034.0,027.3,14.2,0004.1,0004.75,0011.38,0004.00
2023-11-19 02:30:00,SystemResetWarning,0825.3,5.00,000.00,025.8,024.9,000.0,034.0,027.2,14.5,0004.3,0004.63,0011.49,0003.86
2023-11-19 02:31:00,SystemResetWarning,0825.2,5.01,000.00,025.8,024.9,000.0,034.1,027.3,14.6,0003.9,0004.42,0010.85,0003.70
2023-11-19 02:32:00,SystemResetWarning,0825.3,5.00,000.00,025.9,024.9,000.0,034.1,027.3,15.0,0003.8,0004.20,0010.63,0003.54
2023-11-19 02:33:00,SystemResetWarning,0825.3,5.00,000.00,025.9,024.8,000.0,034.1,027.3,15.2,0003.6,0004.08,0011.35,0003.43
2023-11-19 02:34:00,SystemResetWarning,0825.3,5.00,000.00,025.8,024.8,000.0,034.1,027.2,15.2,0003.9,0004.06,0011.80,0003.41
2023-11-19 02:35:00,SystemResetWarning,0825.3,5.00,000.00,025.8,024.8,000.0,034.1,027.2,15.2,0003.8,0004.10,0011.88,0003.43
2023-11-19 02:36:00,SystemResetWarning,0825.4,5.00,000.00,025.8,024.8,000.0,034.1,027.2,15.2,0003.7,0004.12,0012.27,0003.45
2023-11-19 02:37:00,SystemResetWarning,0825.4,5.00,000.00,025.8,024.8,000.0,034.1,027.2,15.1,0003.1,0004.12,0012.12,0003.45
2023-11-19 02:38:00,SystemResetWarning,0825.4,5.00,000.00,025.8,024.8,000.0,034.1,027.2,15.1,0001.8,0004.01,0011.76,0003.38
2023-11-19 02:39:00,SystemResetWarning,0825.4,4.99,000.00,025.8,024.8,000.0,034.1,027.3,15.2,0000.5,0003.74,0010.44,0003.20
2023-11-19 02:40:00,SystemResetWarning,0825.5,5.00,000.00,025.8,024.8,000.0,034.1,027.3,15.1,0000.0,0003.47,0009.88,0002.93
2023-11-19 02:41:00,SystemResetWarning,0825.5,4.99,000.00,025.9,024.8,000.0,034.1,027.3,15.1,0000.0,0003.29,0009.24,0002.66
2023-11-19 02:42:00,SystemResetWarning,0825.4,5.00,000.00,025.9,024.8,000.0,034.1,027.3,15.1,0000.0,0003.10,0008.56,0002.39
2023-11-19 02:43:00,SystemResetWarning,0825.4,5.00,000.00,025.9,024.8,000.0,034.1,027.3,15.1,0000.0,0002.97,0008.26,0002.26
2023-11-19 02:44:00,SystemResetWarning,0825.4,5.00,000.00,025.9,024.8,000.0,034.1,027.3,15.1,0000.0,0002.73,0006.91,0002.08
2023-11-19 02:45:00,SystemResetWarning,0825.4,5.01,000.00,025.9,024.8,000.0,034.2,027.3,15.3,0000.0,0002.43,0005.25,0001.89
2023-11-19 02:46:00,SystemResetWarning,0825.3,5.00,000.00,025.9,024.8,000.0,034.2,027.3,15.4,0000.0,0002.12,0004.63,0001.68
2023-11-19 02:47:00,SystemResetWarning,0825.3,5.00,000.00,025.9,024.8,000.0,034.2,027.3,15.4,0000.0,0001.89,0003.86,0001.49
2023-11-19 02:48:00,SystemResetWarning,0825.3,5.00,000.00,025.9,024.8,000.0,034.2,027.3,15.4,0000.0,0001.68,0002.84,0001.33
2023-11-19 02:49:00,SystemResetWarning,0825.2,5.00,000.00,025.9,024.8,000.0,034.2,027.3,15.4,0000.0,0001.56,0002.73,0001.21
2023-11-19 02:50:00,SystemResetWarning,0825.2,5.00,000.00,025.9,024.9,000.0,034.2,027.3,15.4,0000.0,0001.50,0002.54,0001.17
2023-11-19 02:51:00,SystemResetWarning,0825.2,5.00,000.00,025.9,024.9,000.0,034.2,027.3,15.5,0000.0,0001.50,0002.58,0001.16
2023-11-19 02:52:00,SystemResetWarning,0825.2,5.00,000.00,025.9,024.9,000.0,034.2,027.3,15.4,0000.0,0001.48,0002.63,0001.16
2023-11-19 02:53:00,SystemResetWarning,0825.2,5.00,000.00,025.9,024.8,000.0,034.2,027.3,15.5,0000.0,0001.45,0002.58,0001.15
2023-11-19 02:54:00,SystemResetWarning,0825.1,5.00,000.00,025.9,024.8,000.0,034.2,027.3,15.5,0000.0,0001.43,0002.54,0001.14
2023-11-19 02:55:00,SystemResetWarning,0825.1,5.01,000.00,025.9,024.8,000.0,034.2,027.2,16.0,0000.0,0001.44,0002.61,0001.14
2023-11-19 02:56:00,SystemResetWarning,0825.0,4.99,000.00,025.9,024.8,000.0,034.2,027.2,16.5,0000.0,0001.44,0002.63,0001.13
2023-11-19 02:57:00,SystemResetWarning,0825.1,5.00,000.00,025.9,024.8,000.0,034.2,027.1,16.9,0000.0,0001.45,0002.61,0001.13
2023-11-19 02:58:00,SystemResetWarning,0825.1,5.00,000.00,025.9,024.7,000.0,034.2,027.1,17.0,0000.0,0001.39,0002.47,0001.11
2023-11-19 02:59:00,SystemResetWarning,0825.1,5.00,000.00,025.8,024.7,000.0,034.2,027.1,17.1,0000.0,0001.34,0002.27,0001.10
